Location: Newark
(3.0500°N, 36.0167°E)
Time: 19:34:32
(UTC+00:00)

A-11 Canister half - Pass Details

Date: 26 August 2019
Orbit: 1527 x 1682 km, 47.3° (Epoch: 22 September)

Event Time Altitude Azimuth Distance (km) Brightness Sun altitude
Rises 15:42:17 0° 335° (NNW) 4,915 12.2 -0.6°
Reaches altitude 10° 15:45:51 10° 344° (NNW) 3,918 11.5 -1.4°
Maximum altitude 15:54:50 37° 48° (NE) 2,372 9.7 -3.6°
Drops below altitude 10° 16:03:35 10° 111° (ESE) 3,831 10.4 -5.8°
Enters shadow 16:05:08 - 116° (ESE) 4,263 10.7 -6.2°
Sets 16:06:59 0° 119° (ESE) 4,795 - -6.6°
